Edgartown, MA

1:11 AM EST on January 20, 2017 (GMT -0500)
Martha's Vineyard

Weather History for KMVY - September, 2011

Change the Weather History Date:

Saturday, September 10, 2011

  Actual Average Record
Temperature  
Mean Temperature 64 °F -  
Max Temperature 77 °F 72 °F 87 °F (1993)
Min Temperature 54 °F 56 °F 39 °F (2005)
Growing Degree Days 14 (Base 50)    
Moisture  
Dew Point 56 °F    
Average Humidity 74    
Maximum Humidity 93    
Minimum Humidity 53    
Precipitation  
Precipitation 0.00 in - - ()
Sea Level Pressure  
Sea Level Pressure 29.92 in    
Wind  
Wind Speed 6 mph (NE)    
Max Wind Speed 13 mph    
Max Gust Speed 20 mph    
Visibility 10 miles    
Events      
Averages and records for this station are not official NWS values.
T = Trace of Precipitation, MM = Missing Value Source: NWS Daily Summary

Daily Weather History Graph

Daily Weather History Graph

Search for Another Location

Airport or City:

Trip Planner

Search our weather history database for the weather conditions in past years. The results will help you decide how hot, cold, wet, or windy it might be!

Date:

Astronomy

Sep. 10, 2011 Rise Set
Actual Time 6:17 AM EDT 7:00 PM EDT
Civil Twilight 5:49 AM EDT 7:28 PM EDT
Nautical Twilight 5:16 AM EDT 8:01 PM EDT
Astronomical Twilight 4:42 AM EDT 8:35 PM EDT
Moon 5:54 PM EDT (9/10) 4:33 AM EDT (9/10)
Length of Visible Light 13h 39m
Length of Day
12h 43m
Waxing Gibbous, 97% of the Moon is Illuminated
Sep 10
Waxing Gibbous
Sep 12
Full
Sep 20
Last Quarter
Sep 27
New
Oct 3
First Quarter

Hourly Weather History & Observations

Time (EDT) Temp. Dew Point Humidity Pressure Visibility Wind Dir Wind Speed Gust Speed Precip Events Conditions
12:53 AM 64.0 °F 62.1 °F 93% 29.84 in 10.0 mi NW 3.5 mph - N/A   Clear
1:53 AM 61.0 °F 57.9 °F 90% 29.83 in 10.0 mi NW 5.8 mph - N/A   Clear
2:53 AM 59.0 °F 57.0 °F 93% 29.84 in 10.0 mi Calm Calm - N/A   Clear
3:53 AM 55.9 °F 53.1 °F 90% 29.84 in 10.0 mi Calm Calm - N/A   Clear
4:53 AM 55.0 °F 53.1 °F 93% 29.85 in 10.0 mi NNW 3.5 mph - N/A   Clear
5:53 AM 54.0 °F 51.1 °F 90% 29.86 in 10.0 mi North 6.9 mph - N/A   Clear
6:53 AM 60.1 °F 55.9 °F 86% 29.88 in 10.0 mi NW 4.6 mph - N/A   Clear
7:53 AM 69.1 °F 61.0 °F 75% 29.88 in 10.0 mi Calm Calm - N/A   Clear
8:53 AM 73.0 °F 60.1 °F 64% 29.89 in 10.0 mi NNE 6.9 mph - N/A   Clear
9:53 AM 75.0 °F 59.0 °F 57% 29.91 in 10.0 mi NE 6.9 mph - N/A   Clear
10:53 AM 75.0 °F 60.1 °F 60% 29.92 in 10.0 mi NNE 9.2 mph - N/A   Clear
12:53 PM 73.9 °F 61.0 °F 64% 29.93 in 10.0 mi ENE 11.5 mph - N/A   Clear
1:53 PM 73.9 °F 62.1 °F 66% 29.93 in 10.0 mi ENE 10.4 mph - N/A   Partly Cloudy
2:53 PM 73.0 °F 57.9 °F 59% 29.94 in 10.0 mi East 11.5 mph - N/A   Clear
3:53 PM 72.0 °F 54.0 °F 53% 29.95 in 10.0 mi East 12.7 mph - N/A   Clear
5:53 PM 66.9 °F 55.0 °F 66% 29.99 in 10.0 mi East 11.5 mph 19.6 mph N/A   Clear
6:53 PM 64.0 °F 52.0 °F 65% 29.99 in 10.0 mi East 12.7 mph - N/A   Clear
7:53 PM 63.0 °F 51.1 °F 65% 30.01 in 10.0 mi East 10.4 mph - N/A   Clear
10:53 PM 60.1 °F 53.1 °F 78% 30.07 in 10.0 mi East 5.8 mph - N/A   Clear
11:53 PM 59.0 °F 50.0 °F 72% 30.07 in 10.0 mi East 4.6 mph - N/A   Clear